Location: Worth Mountain WMA
(34.9569°N, 81.4819°W)
Time: 16:25:13
(UTC-04:00)

Daily predictions for brighter satellites

Satellite Brightness Start Highest point End
(mag) Time Altitude Azimuth Time Altitude Azimuth Time Altitude Azimuth
Meteor 1-20 Rocket 4.2 20:26:41 10° S 20:32:11 62° E 20:37:36 10° NNE
Cosmos 1441 Rocket 3.4 20:32:47 10° N 20:36:24 46° E 20:40:00 10° SSE
Lacrosse 5 rocket 3.0 20:34:09 10° N 20:36:42 17° NE 20:39:20 10° E
ALOS 3.3 20:32:20 10° S 20:36:51 50° W 20:41:24 10° NNW
Cosmos 2056 Rocket 4.0 20:33:04 10° SSW 20:38:09 67° WNW 20:43:19 10° NNE
USA 267 3.4 20:31:59 10° SE 20:38:32 81° SW 20:45:08 10° NW
Sich 1 Rocket 4.2 20:34:26 10° SSW 20:38:45 61° W 20:43:07 10° N
Cosmos 1975 Rocket 3.3 20:35:17 10° N 20:39:39 51° E 20:43:56 10° SSE
Helios 1B rocket 4.4 20:38:50 10° E 20:39:47 11° E 20:40:44 10° ESE
Cosmos 405 Rocket 2.8 20:37:43 10° N 20:41:34 87° W 20:45:28 10° S
CZ-4C R/B 3.1 20:35:41 10° NNW 20:43:07 83° WSW 20:51:12 10° SSE
FengYun 1-2 T 4.5 20:38:27 10° S 20:44:04 80° WSW 20:49:46 10° NNW
Cosmos 2026 Rocket 4.0 20:38:42 10° S 20:44:56 67° E 20:51:15 10° NNE
EXPRESS MD2 2.7 20:44:37 10° WSW 20:46:50 64° NW 20:50:07 10° NE
Cosmos 1655 Rocket 4.1 20:43:50 10° SSE 20:49:53 54° E 20:56:01 10° NNE
GPS 2-05 Rocket1 2.7 20:47:10 10° W 20:50:34 89° SE 20:53:51 10° E
Cosmos 2227 Rocket 4.1 20:49:58 10° NW 20:54:49 30° WSW 20:59:39 10° SSW
Cosmos 1633 2.4 20:52:36 10° S 20:56:10 74° E 20:59:47 10° N
Cosmos 2360 Rocket 3.8 20:56:26 12° ESE 20:57:26 13° E 20:59:46 10° ENE
Cosmos 1980 Rocket 2.7 20:52:25 10° SSW 20:57:59 67° WNW 21:03:34 10° NNE
Cosmos 839 Rocket 4.0 20:51:55 10° SSW 20:58:20 80° ESE 21:04:31 10° NNE
YAOGAN 6 4.3 20:57:34 13° E 20:59:03 17° ENE 21:01:22 10° NNE
ATLAS 2AS CENTAUR R/B 3.6 20:53:49 10° SSE 21:00:13 31° ESE 21:06:59 10° NE
BREEZE M DEB (TANK) 4.4 20:47:08 10° SSW 21:01:10 39° SSE 21:05:21 10° ENE
Cosmos 1452 Rocket 3.5 20:56:46 10° S 21:02:02 78° ESE 21:07:19 10° NNE
USA 186 1.8 21:01:12 10° SSE 21:04:28 65° ENE 21:07:49 10° N
CZ-2D R/B 3.4 21:01:20 10° S 21:05:13 80° W 21:09:05 10° NNW
Cosmos 1420 Rocket 4.0 21:01:17 10° S 21:06:20 56° ESE 21:11:24 10° NNE
NOSS 3-1 (A) 4.5 21:01:45 10° SW 21:07:14 47° NW 21:13:19 10° NNE
NOSS 2-3 (E) 4.1 21:06:57 10° S 21:11:14 41° ESE 21:15:59 10° NE
Cosmos 407 Rocket 3.7 21:06:18 10° NNW 21:11:39 76° WSW 21:16:56 10° S
Okean 2 Rocket 3.6 21:07:26 10° SSW 21:11:52 63° W 21:16:21 10° N
Atlas Centaur 2 3.0 21:05:08 10° WSW 21:13:16 62° S 21:18:37 18° ESE
Helios 1A 4.1 21:11:48 19° ESE 21:13:44 27° ENE 21:17:19 10° NNE
Cosmos 1190 Rocket 4.5 21:09:12 10° NNW 21:14:25 63° WSW 21:19:37 10° S
Cosmos 44 Rocket 3.3 21:13:21 10° NNW 21:18:05 62° ENE 21:21:13 21° SE
Resurs 1-3 4.2 21:24:09 10° S 21:28:26 55° W 21:32:46 10° NNW
BREEZE-M DEB (TANK) 4.1 21:26:16 10° W 21:29:53 25° NW 21:31:52 10° NNE
Cosmos 676 Rocket 4.1 21:25:25 10° NNW 21:30:44 78° WSW 21:35:26 13° S
Cosmos 2227 4.1 21:27:14 10° NNW 21:32:54 87° ENE 21:36:59 20° SSE
DELTA 2 R/B (1) 3.6 21:28:39 10° WNW 21:34:17 82° NNE 21:37:20 28° ESE
Uosat 12 SS-18 rocket 4.4 21:29:53 10° SSW 21:34:28 84° WNW 21:40:04 10° NNE
Cosmos 1023 Rocket 4.4 21:31:12 10° NNW 21:36:30 82° ENE 21:39:52 23° SSE
Meteor 1-11 Rocket 3.7 21:32:05 10° S 21:37:58 86° E 21:43:47 10° N
SeaSat 1 3.5 21:33:46 10° NNE 21:38:31 49° WNW 21:43:14 10° SW
Spot 2 Rocket 4.3 21:35:41 10° S 21:40:37 49° W 21:45:34 10° NNW
Delta 2 Rocket 3.9 21:37:13 10° SW 21:41:11 41° SSE 21:41:54 38° SE
NOSS 2-3 (C) 3.7 21:40:12 10° SSW 21:44:47 89° ESE 21:49:58 10° NNE
SPOT 5 4.4 21:46:38 20° ENE 21:46:38 20° ENE 21:50:07 10° NNE
Cosmos 1140 Rocket 3.5 21:41:38 10° NNW 21:46:53 81° WSW 21:50:02 25° S
Lacrosse 5 1.7 21:47:21 10° SSW 21:52:22 65° SE 21:57:24 10° NE
Cosmos 614 Rocket 4.0 21:49:47 10° NNW 21:54:54 79° WSW 21:57:22 31° S
S3M 4.2 21:49:42 10° NNW 21:55:56 70° W 22:01:48 12° S
Resurs 01 Rocket 3.8 21:53:36 10° SSW 21:57:11 24° W 22:00:47 10° NW
Cosmos 1553 Rocket 4.4 21:52:58 10° NNW 21:58:59 59° W 22:04:55 10° S
Cosmos 1939 Rocket 3.7 21:57:19 23° SSW 21:59:29 47° W 22:03:20 10° NNW
Okean 1 Rocket 2.9 21:58:32 50° SSE 21:59:34 75° E 22:03:56 10° N
H-2A R/B 3.3 22:00:55 24° ENE 22:00:55 24° ENE 22:04:37 10° NNE
Meteor 1-29 3.0 21:57:38 10° NNE 22:00:43 71° NNE 22:00:43 71° NNE
Cosmos 2266 Rocket 3.9 21:56:11 10° S 22:02:15 86° W 22:08:18 10° N
Cosmos 2315 Rocket 4.3 21:56:17 10° N 22:02:18 48° E 22:03:43 41° ESE
GENESIS II 4.1 21:59:02 10° NNW 22:02:54 72° NE 22:02:54 72° NE
ARGOS 3.6 22:04:28 40° E 22:04:59 41° ENE 22:09:59 10° N
Okean 1-7 Rocket 4.4 22:01:06 10° N 22:04:41 37° ENE 22:04:41 37° ENE
Cosmos 44 3.9 22:01:03 10° NW 22:05:19 46° WSW 22:06:54 32° SSW
Cosmos 2322 Rocket 3.0 22:00:32 10° SW 22:06:04 53° WNW 22:11:39 10° N
Cosmos 1300 Rocket 4.1 22:03:00 15° SSW 22:06:27 56° W 22:10:42 10° N
Cosmos 1741 Rocket 3.9 22:01:42 10° NNW 22:06:58 80° ENE 22:08:14 53° SSE
ERS-1 Rocket 3.0 22:06:15 54° ESE 22:07:01 61° ENE 22:11:59 10° N
Cosmos 1607 4.5 22:01:03 10° NNW 22:07:15 46° NE 22:08:50 39° E
Nadezhda 2 Rocket 4.5 22:05:19 41° SSE 22:07:17 59° E 22:13:21 10° NNE
Cosmos 1536 3.6 22:06:18 20° SSW 22:08:56 51° W 22:12:56 10° N
Meteor 1-23 Rocket 4.1 22:03:35 10° N 22:09:10 74° E 22:10:35 50° SSE
Cosmos 2263 Rocket 2.2 22:05:12 10° NNW 22:10:52 65° ENE 22:11:56 54° ESE
Tiangong 1 3.4 22:09:09 10° NW 22:10:33 17° N 22:10:33 17° N
Helios 1B rocket 3.4 22:11:21 10° N 22:15:18 47° WNW 22:18:03 18° SW
Lacrosse 5 rocket 2.0 22:12:25 10° NW 22:15:50 43° WSW 22:15:50 43° WSW
SL-16 R/B 3.4 22:10:46 10° SW 22:16:07 43° WNW 22:21:30 10° N
Cosmos 1025 Rocket 3.5 22:16:03 10° N 22:19:22 48° NNE 22:19:22 48° NNE
ATLAS 3B R/B 3.4 22:16:47 10° NNW 22:22:47 34° NE 22:23:52 32° ENE
Cosmos 2322 3.5 22:24:05 68° ESE 22:24:11 68° ESE 22:29:49 10° NNE
OAO 1 Rocket 4.3 22:21:07 10° WSW 22:26:22 76° S 22:26:22 76° S
USA 245 4.1 22:27:22 61° ENE 22:27:22 61° ENE 22:31:50 10° N
COSMOS 2428 4.3 22:35:04 22° NE 22:35:04 22° NE 22:37:12 10° NE
Cosmos 1110 Rocket 4.2 22:37:25 51° SW 22:38:33 68° WNW 22:43:43 10° NNE
Cosmos 2360 Rocket 2.4 22:37:59 31° SW 22:40:43 70° WNW 22:46:20 10° NNE
MetOp-B 4.1 22:40:47 72° SW 22:41:03 74° WSW 22:46:25 10° NNW
Cosmos 1932 4.4 22:36:15 10° NNW 22:42:44 74° ENE 22:43:03 73° E
Terra 3.7 22:45:43 20° NNE 22:45:43 20° NNE 22:47:39 10° NNE
ATLAS 2AS CENTAUR R/B 3.7 22:43:23 10° SW 22:50:49 54° NW 22:58:44 10° NNE
SPOT 1/Viking Rocket 4.1 23:02:52 54° NNW 23:02:52 54° NNW 23:06:52 10° NNW
Atlas Centaur 2 3.2 22:55:19 10° W 23:01:14 44° SW 23:01:14 44° SW
Cosmos 1238 Rocket 4.1 23:07:25 10° N 23:13:45 73° WNW 23:13:45 73° WNW
Aureole 3 Rocket 4.3 23:13:06 10° N 23:21:30 72° W 23:21:30 72° W
SPOT 5 4.5 23:25:52 31° WNW 23:25:52 31° WNW 23:28:56 10° NNW
Lacrosse 5 4.2 23:31:51 10° W 23:35:42 21° NW 23:39:34 10° NNE
H-2A R/B 3.8 23:41:34 27° WNW 23:41:34 27° WNW 23:44:26 10° NNW
USA 238 DEB 4.2 23:44:19 10° NW 23:49:51 56° NW 23:49:51 56° NW
NOSS 3-2 (A) 4.3 23:43:50 10° NNW 23:50:24 58° NNE 23:50:24 58° NNE
USA 238 4.2 23:44:25 10° NW 23:49:57 56° NW 23:49:57 56° NW
Cosmos 2278 Rocket 4.0 23:47:01 10° N 23:49:36 24° NNE 23:49:36 24° NNE
